Year,Month,Day,Hour,Minute,Value (Times are PST for temperature in C)
2010,09,19,07,59,14.20
2010,09,19,08,00,14.20
2010,09,19,08,01,14.20
2010,09,19,08,02,14.20
2010,09,19,08,03,14.20
2010,09,19,08,04,14.20
2010,09,19,08,05,14.20
2010,09,19,08,06,14.20
2010,09,19,08,07,14.20
2010,09,19,08,08,14.20
2010,09,19,08,09,14.20
2010,09,19,08,10,14.20
2010,09,19,08,11,14.10
2010,09,19,08,12,14.10
2010,09,19,08,13,14.10
2010,09,19,08,14,14.10
2010,09,19,08,15,14.10
2010,09,19,08,16,14.10
2010,09,19,08,17,14.10
2010,09,19,08,18,14.10
2010,09,19,08,19,14.20
2010,09,19,08,20,14.20
2010,09,19,08,21,14.20
2010,09,19,08,22,14.20
2010,09,19,08,23,14.20
2010,09,19,08,24,14.20
2010,09,19,08,25,14.30
2010,09,19,08,26,14.30
2010,09,19,08,27,14.30
2010,09,19,08,28,14.30
2010,09,19,08,29,14.30
2010,09,19,08,30,14.30
2010,09,19,08,31,14.30
2010,09,19,08,32,14.30
2010,09,19,08,33,14.30
2010,09,19,08,34,14.30
2010,09,19,08,35,14.30
2010,09,19,08,36,14.30
2010,09,19,08,37,14.30
2010,09,19,08,38,14.40
2010,09,19,08,39,14.40
2010,09,19,08,40,14.40
2010,09,19,08,41,14.40
2010,09,19,08,42,14.40
2010,09,19,08,43,14.40
2010,09,19,08,44,14.40
2010,09,19,08,45,14.40
2010,09,19,08,46,14.40
2010,09,19,08,47,14.40
2010,09,19,08,48,14.40
2010,09,19,08,49,14.40
2010,09,19,11,38,16.20
2010,09,19,11,39,16.20
2010,09,19,11,40,16.20
2010,09,19,11,41,16.30
2010,09,19,11,42,16.30
2010,09,19,11,43,16.40
2010,09,19,11,44,16.50
2010,09,19,11,45,16.60
2010,09,19,11,46,16.70
2010,09,19,11,47,16.50
2010,09,19,11,48,16.40
2010,09,19,11,49,16.40
2010,09,19,11,50,16.30
2010,09,19,11,51,16.30
2010,09,19,11,52,16.30
2010,09,19,11,53,16.30
2010,09,19,11,54,16.30
2010,09,19,11,55,16.30
2010,09,19,11,56,16.20
2010,09,19,11,57,16.10
2010,09,19,11,58,16.10
2010,09,19,11,59,16.10
2010,09,19,12,00,16.10
2010,09,19,12,01,16.10
2010,09,19,12,02,16.20
2010,09,19,12,03,16.30
2010,09,19,12,04,16.20
2010,09,19,12,05,16.20
2010,09,19,12,06,16.20
2010,09,19,12,07,16.20
2010,09,19,12,08,16.30
2010,09,19,12,09,16.40
2010,09,19,12,10,16.30
2010,09,19,12,11,16.30
2010,09,19,12,12,16.30
2010,09,19,12,13,16.40
2010,09,19,12,14,16.40
2010,09,19,12,15,16.50
2010,09,19,12,16,16.60
2010,09,19,12,17,16.70
2010,09,19,12,18,16.80
2010,09,19,12,19,16.90
2010,09,19,12,20,17.00
2010,09,19,12,21,17.20
2010,09,19,12,22,17.30
2010,09,19,12,23,17.30
2010,09,19,12,24,17.40
2010,09,19,12,25,17.50
2010,09,19,12,26,17.50
2010,09,19,12,27,17.60
2010,09,19,12,28,17.70
2010,09,19,12,29,17.70
2010,09,19,12,30,17.80
2010,09,19,12,31,17.90
2010,09,19,12,32,18.00
2010,09,19,12,33,18.10
2010,09,19,12,34,18.20
2010,09,19,12,35,18.20
2010,09,19,12,36,18.40
2010,09,19,12,37,18.50
2010,09,19,12,38,18.60
2010,09,19,12,39,18.70
2010,09,19,12,40,18.80
2010,09,19,12,41,18.90
2010,09,19,12,42,18.90
2010,09,19,12,43,18.90
2010,09,19,12,44,18.90
2010,09,19,12,45,19.10
2010,09,19,12,46,19.00
2010,09,19,12,47,18.90
2010,09,19,12,48,18.90
2010,09,19,12,49,18.90
2010,09,19,12,50,18.90
2010,09,19,12,51,19.00
2010,09,19,12,52,19.10
2010,09,19,12,53,19.10
2010,09,19,12,54,19.10
2010,09,19,12,55,19.10
2010,09,19,12,56,19.10
2010,09,19,12,57,19.10
2010,09,19,12,58,19.10
2010,09,19,12,59,19.10
2010,09,19,13,00,19.20
2010,09,19,13,01,19.30
2010,09,19,13,02,19.30
2010,09,19,13,03,19.40
2010,09,19,13,04,19.40
2010,09,19,13,05,19.50
2010,09,19,13,06,19.60
2010,09,19,13,07,19.60
2010,09,19,13,08,19.60
2010,09,19,13,09,19.60
2010,09,19,13,10,19.60
2010,09,19,13,11,19.70
2010,09,19,13,12,19.70
2010,09,19,13,13,19.70
2010,09,19,13,14,19.70
2010,09,19,13,15,19.70
2010,09,19,13,16,19.80
2010,09,19,13,17,19.80
2010,09,19,13,18,19.90
2010,09,19,13,19,19.90
2010,09,19,13,20,19.90
2010,09,19,13,21,19.90
2010,09,19,13,22,20.00
2010,09,19,13,23,20.10
2010,09,19,13,24,20.10
2010,09,19,13,25,20.10
2010,09,19,13,26,20.00
2010,09,19,13,27,19.90
2010,09,19,13,28,19.90
2010,09,19,13,29,19.90
2010,09,19,13,30,19.90
2010,09,19,13,31,19.90
2010,09,19,13,32,19.90
2010,09,19,13,33,19.90
2010,09,19,13,34,19.90
2010,09,19,13,35,19.90
2010,09,19,13,36,19.90
2010,09,19,13,37,19.90
2010,09,19,13,38,19.90
2010,09,19,13,39,19.90
2010,09,19,13,40,20.00
2010,09,19,13,41,20.10
2010,09,19,13,42,20.20
2010,09,19,13,43,20.20
2010,09,19,13,44,20.20
2010,09,19,13,45,20.30
2010,09,19,13,46,20.30
2010,09,19,13,47,20.40
2010,09,19,13,48,20.30
2010,09,19,13,49,20.30
2010,09,19,13,50,20.30
2010,09,19,13,51,20.30
2010,09,19,13,52,20.30
2010,09,19,13,53,20.30
2010,09,19,13,54,20.30
2010,09,19,13,55,20.30
2010,09,19,13,56,20.30
2010,09,19,13,57,20.40
2010,09,19,13,58,20.40
2010,09,19,13,59,20.50
2010,09,19,14,00,20.50
2010,09,19,14,01,20.40
2010,09,19,14,02,20.40
2010,09,19,14,03,20.30
2010,09,19,14,04,20.30
2010,09,19,14,05,20.20
2010,09,19,14,06,20.20
2010,09,19,14,07,20.20
2010,09,19,14,08,20.20
2010,09,19,14,09,20.20
2010,09,19,14,10,20.20
2010,09,19,14,11,20.30
2010,09,19,14,12,20.40
2010,09,19,14,13,20.50
2010,09,19,14,14,20.60
2010,09,19,14,15,20.70
2010,09,19,14,16,20.70
2010,09,19,14,17,20.60
2010,09,19,14,18,20.40
2010,09,19,14,19,20.20
2010,09,19,14,20,20.20
2010,09,19,14,21,20.20
2010,09,19,14,22,20.10
2010,09,19,14,23,20.00
2010,09,19,14,24,20.00
2010,09,19,14,25,20.10
2010,09,19,14,26,20.00
2010,09,19,14,27,19.90
2010,09,19,14,28,19.90
2010,09,19,14,29,19.90
2010,09,19,14,30,20.00
2010,09,19,14,31,20.10
2010,09,19,14,32,20.20
2010,09,19,14,33,20.20
2010,09,19,14,34,20.20
2010,09,19,14,35,20.10
2010,09,19,14,36,20.10
2010,09,19,14,37,20.10
2010,09,19,14,38,20.10
2010,09,19,14,39,20.10
2010,09,19,14,40,20.00
2010,09,19,14,41,19.90
2010,09,19,14,42,19.80
2010,09,19,14,43,19.80
2010,09,19,14,44,19.80
2010,09,19,14,45,19.80
2010,09,19,14,46,19.80
2010,09,19,14,47,19.90
2010,09,19,14,48,19.90
2010,09,19,14,49,19.90
2010,09,19,14,50,19.70
2010,09,19,14,51,19.60
2010,09,19,14,52,19.50
2010,09,19,14,53,19.50
2010,09,19,14,54,19.40
2010,09,19,14,55,19.40
2010,09,19,14,56,19.20
2010,09,19,14,57,19.00
2010,09,19,14,58,18.80
2010,09,19,14,59,18.60
2010,09,19,15,00,18.50
2010,09,19,15,01,18.40
2010,09,19,15,02,18.30
2010,09,19,15,03,18.20
2010,09,19,15,04,18.10
2010,09,19,15,05,18.00
2010,09,19,15,06,17.90
2010,09,19,15,07,17.80
2010,09,19,15,08,17.70
2010,09,19,15,09,17.50
2010,09,19,15,10,17.40
2010,09,19,15,11,17.40
2010,09,19,15,12,17.40
2010,09,19,15,13,17.40
2010,09,19,15,14,17.40
2010,09,19,15,15,17.30
2010,09,19,15,16,17.20
2010,09,19,15,17,17.20
2010,09,19,15,18,17.20
2010,09,19,15,19,17.10
2010,09,19,15,20,17.10
2010,09,19,15,21,17.10
2010,09,19,15,22,17.10
2010,09,19,15,23,17.00
2010,09,19,15,24,17.00
2010,09,19,15,25,17.00
2010,09,19,15,26,16.90
2010,09,19,15,27,16.80
2010,09,19,15,28,16.80
2010,09,19,15,29,16.80
2010,09,19,15,30,16.80
2010,09,19,15,31,16.80
2010,09,19,15,32,16.90
2010,09,19,15,33,16.90
2010,09,19,15,34,17.00
2010,09,19,15,35,17.10
2010,09,19,15,36,17.10
2010,09,19,15,37,17.20
2010,09,19,15,38,17.10
2010,09,19,15,39,17.10
2010,09,19,15,40,17.00
2010,09,19,15,41,17.00
2010,09,19,15,42,17.00
2010,09,19,15,43,16.90
2010,09,19,15,44,16.80
2010,09,19,15,45,16.80
2010,09,19,15,46,16.80
2010,09,19,15,47,16.80
2010,09,19,15,48,16.70
2010,09,19,15,49,16.70
2010,09,19,15,50,16.70
2010,09,19,15,51,16.70
2010,09,19,15,52,16.70
2010,09,19,15,53,16.70
2010,09,19,15,54,16.70
2010,09,19,15,55,16.80
2010,09,19,15,56,16.80
2010,09,19,15,57,16.80
2010,09,19,15,58,16.90
2010,09,19,15,59,16.90
2010,09,19,16,00,17.00
2010,09,19,16,01,17.00
2010,09,19,16,02,17.00
2010,09,19,16,03,17.10
2010,09,19,16,04,17.10
2010,09,19,16,05,17.10
2010,09,19,16,06,17.10
2010,09,19,16,07,17.10
2010,09,19,16,08,17.20
2010,09,19,16,09,17.20
2010,09,19,16,10,17.30
2010,09,19,16,11,17.30
2010,09,19,16,12,17.20
2010,09,19,16,13,17.20
2010,09,19,16,14,17.20
2010,09,19,16,15,17.20
2010,09,19,16,16,17.10
2010,09,19,16,17,17.20
2010,09,19,16,18,17.20
2010,09,19,16,19,17.10
2010,09,19,16,20,17.00
2010,09,19,16,21,17.00
2010,09,19,16,22,17.00
2010,09,19,16,23,17.00
2010,09,19,16,24,17.00
2010,09,19,16,25,17.10
2010,09,19,16,26,17.10
2010,09,19,16,27,17.20
2010,09,19,16,28,17.30
2010,09,19,16,29,17.30
2010,09,19,16,30,17.30
2010,09,19,16,31,17.40
2010,09,19,16,32,17.40
2010,09,19,16,33,17.40
2010,09,19,16,34,17.50
2010,09,19,16,35,17.50
2010,09,19,16,36,17.50
2010,09,19,16,37,17.60
2010,09,19,16,38,17.60
2010,09,19,16,39,17.60
2010,09,19,16,40,17.70
2010,09,19,16,41,17.70
2010,09,19,16,42,17.70
2010,09,19,16,43,17.70
2010,09,19,16,44,17.70
2010,09,19,16,45,17.70
2010,09,19,16,46,17.70
2010,09,19,16,47,17.70
2010,09,19,16,48,17.70
2010,09,19,16,49,17.70
2010,09,19,16,50,17.70
2010,09,19,16,51,17.70
2010,09,19,16,52,17.70
2010,09,19,16,53,17.70
2010,09,19,16,54,17.60
2010,09,19,16,55,17.70
2010,09,19,16,56,17.70
2010,09,19,16,57,17.70
2010,09,19,16,58,17.70
2010,09,19,16,59,17.70
2010,09,19,17,00,17.70
2010,09,19,17,01,17.70
2010,09,19,17,02,17.70
2010,09,19,17,03,17.70
2010,09,19,17,04,17.70
2010,09,19,17,05,17.70
2010,09,19,17,06,17.80
2010,09,19,17,07,17.80
2010,09,19,17,08,17.80
2010,09,19,17,09,17.80
2010,09,19,17,10,17.80
2010,09,19,17,11,17.80
2010,09,19,17,12,17.80
2010,09,19,17,13,17.80
2010,09,19,17,14,17.80
2010,09,19,17,15,17.80
2010,09,19,17,16,17.80
2010,09,19,17,17,17.80
2010,09,19,17,18,17.80
2010,09,19,17,19,17.80
2010,09,19,17,20,17.80
2010,09,19,17,21,17.80
2010,09,19,17,22,17.80
2010,09,19,17,23,17.80
2010,09,19,17,24,17.80
2010,09,19,17,25,17.80
2010,09,19,17,26,17.80
2010,09,19,17,27,17.70
2010,09,19,17,28,17.70
2010,09,19,17,29,17.70
2010,09,19,17,30,17.70
2010,09,19,17,31,17.70
2010,09,19,17,32,17.60
2010,09,19,17,33,17.60
2010,09,19,17,34,17.60
2010,09,19,17,35,17.60
2010,09,19,17,36,17.50
2010,09,19,17,37,17.50
2010,09,19,17,38,17.40
2010,09,19,17,39,17.30
2010,09,19,17,40,17.30
2010,09,19,17,41,17.30
2010,09,19,17,42,17.30
2010,09,19,17,43,17.30
2010,09,19,17,44,17.30
2010,09,19,17,45,17.30
2010,09,19,17,46,17.20
2010,09,19,17,47,17.20
2010,09,19,17,48,17.20
2010,09,19,17,49,17.20
2010,09,19,17,50,17.20
2010,09,19,17,51,17.20
2010,09,19,17,52,17.20
2010,09,19,17,53,17.20
2010,09,19,17,54,17.20
2010,09,19,17,55,17.20
2010,09,19,17,56,17.20
2010,09,19,17,57,17.10
2010,09,19,17,58,17.10
2010,09,19,17,59,17.10
2010,09,19,18,00,17.10
2010,09,19,18,01,17.10
2010,09,19,18,02,17.10
2010,09,19,18,03,17.10
2010,09,19,18,04,17.10
2010,09,19,18,05,17.10
2010,09,19,18,06,17.20
2010,09,19,18,07,17.20
2010,09,19,18,08,17.30
2010,09,19,18,09,17.30
2010,09,19,18,10,17.30
2010,09,19,18,11,17.30
2010,09,19,18,12,17.30
2010,09,19,18,13,17.30
2010,09,19,18,14,17.30
2010,09,19,18,15,17.40
2010,09,19,18,16,17.30
2010,09,19,18,17,17.30
2010,09,19,18,18,17.30
2010,09,19,18,19,17.30
2010,09,19,18,20,17.30
2010,09,19,18,21,17.30
2010,09,19,18,22,17.30
2010,09,19,18,23,17.30
2010,09,19,18,24,17.30
2010,09,19,18,25,17.30
2010,09,19,18,26,17.20
2010,09,19,18,27,17.20
2010,09,19,18,28,17.20
2010,09,19,18,29,17.10
2010,09,19,18,30,17.10
2010,09,19,18,31,17.10
2010,09,19,18,32,17.10
2010,09,19,18,33,17.00
2010,09,19,18,34,17.00
2010,09,19,18,35,17.00
2010,09,19,18,36,16.90
2010,09,19,18,37,16.90
2010,09,19,18,38,16.90
2010,09,19,18,39,16.90
2010,09,19,18,40,16.80
2010,09,19,18,41,16.80
2010,09,19,18,42,16.80
2010,09,19,18,43,16.80
2010,09,19,18,44,16.70
2010,09,19,18,45,16.70
2010,09,19,18,46,16.70
2010,09,19,18,47,16.70
2010,09,19,18,48,16.70
2010,09,19,18,49,16.70
2010,09,19,18,50,16.70
2010,09,19,18,51,16.70
2010,09,19,18,52,16.70
2010,09,19,18,53,16.60
2010,09,19,18,54,16.60
2010,09,19,18,55,16.60
2010,09,19,18,56,16.60
2010,09,19,18,57,16.60
2010,09,19,18,58,16.60
2010,09,19,18,59,16.60
2010,09,19,19,00,16.60
2010,09,19,19,01,16.60
2010,09,19,19,02,16.60
2010,09,19,19,03,16.60
